WZZ5KX LBSF-LIME

Flight info

Callsign WZZ5KX
Flight time 1h 44m
Altitude 34000
Route OGOTA L615 OBLAK DCT ADNAN DCT BAXON DCT BOA DCT OGPUD DCT BETMU DCT OSBUL
Aircraft A321/M-SDE3FGHIRWY/LB1

Departure

Time 2026-04-27 17:23
Airport Sofia Airport (LBSF)

Arrival

Time 2026-04-27 19:08
Airport Il Caravaggio International Airport (LIME)
Time Latitude Longitude Altitude Speed Heading
2026-04-27 16:49 42.69032 23.40518 1757 ft 0 kts 197°
2026-04-27 17:17 42.69031 23.40518 1756 ft 1 kts 197°
2026-04-27 17:17 42.69018 23.40512 1756 ft 3 kts 197°
2026-04-27 17:18 42.69000 23.40435 1756 ft 7 kts 284°
2026-04-27 17:18 42.69015 23.40364 1756 ft 9 kts 285°
2026-04-27 17:18 42.69033 23.40277 1756 ft 11 kts 287°
2026-04-27 17:18 42.69056 23.40174 1756 ft 12 kts 286°
2026-04-27 17:19 42.69082 23.40053 1756 ft 14 kts 286°
2026-04-27 17:19 42.69099 23.39940 1756 ft 13 kts 281°
2026-04-27 17:19 42.69122 23.39815 1756 ft 15 kts 285°
2026-04-27 17:19 42.69152 23.39675 1756 ft 16 kts 287°
2026-04-27 17:20 42.69193 23.39555 1756 ft 14 kts 324°
2026-04-27 17:20 42.69288 23.39548 1756 ft 15 kts
2026-04-27 17:20 42.69396 23.39562 1756 ft 16 kts
2026-04-27 17:20 42.69512 23.39576 1756 ft 15 kts
2026-04-27 17:21 42.69596 23.39585 1756 ft 13 kts
2026-04-27 17:21 42.69660 23.39592 1756 ft 7 kts
2026-04-27 17:21 42.69665 23.39592 1756 ft 0 kts
2026-04-27 17:21 42.69666 23.39593 1756 ft 1 kts
2026-04-27 17:22 42.69680 23.39594 1756 ft 3 kts
2026-04-27 17:22 42.69717 23.39598 1756 ft 6 kts
2026-04-27 17:22 42.69765 23.39606 1756 ft 7 kts 21°
2026-04-27 17:22 42.69772 23.39678 1756 ft 21 kts 93°
2026-04-27 17:23 42.69738 23.40194 1757 ft 87 kts 94°
2026-04-27 17:23 42.69675 23.41272 1757 ft 140 kts 95°
2026-04-27 17:23 42.69582 23.42789 1842 ft 173 kts 96°
2026-04-27 17:23 42.69473 23.44395 2437 ft 170 kts 96°
2026-04-27 17:24 42.69360 23.46013 3008 ft 173 kts 96°
2026-04-27 17:24 42.69242 23.47636 3543 ft 172 kts 96°
2026-04-27 17:24 42.69118 23.49278 3981 ft 176 kts 95°
2026-04-27 17:24 42.69002 23.50948 4441 ft 178 kts 94°
2026-04-27 17:25 42.69054 23.52647 4819 ft 185 kts 76°
2026-04-27 17:25 42.69549 23.54278 5184 ft 194 kts 56°
2026-04-27 17:25 42.70633 23.55488 5384 ft 211 kts 24°
2026-04-27 17:25 42.72076 23.55856 5826 ft 217 kts 358°
2026-04-27 17:26 42.73590 23.55532 6248 ft 225 kts 347°
2026-04-27 17:26 42.75183 23.55024 6404 ft 249 kts 347°
2026-04-27 17:26 42.76958 23.54485 6609 ft 271 kts 348°
2026-04-27 17:26 42.78831 23.53975 7159 ft 277 kts 349°
2026-04-27 17:27 42.80726 23.53476 7845 ft 278 kts 349°
2026-04-27 17:27 42.82622 23.52981 8597 ft 277 kts 348°
2026-04-27 17:27 42.84524 23.52526 9252 ft 279 kts 350°
2026-04-27 17:27 42.86430 23.51945 9828 ft 283 kts 338°
2026-04-27 17:28 42.88118 23.50563 10293 ft 289 kts 315°
2026-04-27 17:28 42.89436 23.48413 10537 ft 304 kts 305°
2026-04-27 17:28 42.91939 23.43365 10912 ft 338 kts 304°
2026-04-27 17:29 42.93311 23.40680 11224 ft 349 kts 305°
2026-04-27 17:29 42.94748 23.37994 11787 ft 352 kts 306°
2026-04-27 17:29 42.96216 23.35312 12360 ft 354 kts 307°
2026-04-27 17:29 42.97694 23.32613 12917 ft 356 kts 306°
2026-04-27 17:30 42.99174 23.29880 13441 ft 359 kts 306°
2026-04-27 17:30 43.02143 23.24341 14475 ft 364 kts 306°
2026-04-27 17:30 43.03639 23.21543 15008 ft 365 kts 306°
2026-04-27 17:31 43.05145 23.18728 15446 ft 370 kts 305°
2026-04-27 17:31 43.06672 23.15871 15876 ft 374 kts 305°
2026-04-27 17:31 43.08214 23.12996 16337 ft 376 kts 305°
2026-04-27 17:31 43.09768 23.10101 16800 ft 379 kts 305°
2026-04-27 17:32 43.11330 23.07183 17254 ft 381 kts 305°
2026-04-27 17:32 43.14472 23.01288 18148 ft 386 kts 305°
2026-04-27 17:32 43.16058 22.98310 18578 ft 388 kts 305°
2026-04-27 17:33 43.17653 22.95314 18994 ft 391 kts 305°
2026-04-27 17:33 43.19258 22.92294 19395 ft 393 kts 305°
2026-04-27 17:33 43.20870 22.89258 19800 ft 395 kts 305°
2026-04-27 17:33 43.22493 22.86200 20194 ft 397 kts 305°
2026-04-27 17:34 43.24122 22.83126 20571 ft 400 kts 305°
2026-04-27 17:34 43.25760 22.80030 20936 ft 402 kts 305°
2026-04-27 17:34 43.27407 22.76919 21324 ft 403 kts 304°
2026-04-27 17:34 43.29051 22.73810 21804 ft 402 kts 304°
2026-04-27 17:35 43.30693 22.70696 22182 ft 404 kts 304°
2026-04-27 17:35 43.32341 22.67564 22541 ft 405 kts 304°
2026-04-27 17:35 43.33994 22.64420 22877 ft 407 kts 304°
2026-04-27 17:35 43.35655 22.61262 23201 ft 409 kts 304°
2026-04-27 17:36 43.37326 22.58085 23537 ft 410 kts 304°
2026-04-27 17:36 43.38978 22.54938 23843 ft 412 kts 304°
2026-04-27 17:36 43.40657 22.51737 24151 ft 414 kts 304°
2026-04-27 17:36 43.42343 22.48520 24459 ft 415 kts 304°
2026-04-27 17:37 43.44036 22.45286 24757 ft 417 kts 303°
2026-04-27 17:37 43.45733 22.42039 25050 ft 418 kts 303°
2026-04-27 17:37 43.47389 22.38745 25320 ft 419 kts 300°
2026-04-27 17:37 43.48706 22.35174 25601 ft 418 kts 290°
2026-04-27 17:38 43.49526 22.31337 25864 ft 418 kts 281°
2026-04-27 17:38 43.50084 22.27400 26140 ft 420 kts 279°
2026-04-27 17:38 43.50581 22.23436 26410 ft 421 kts 279°
2026-04-27 17:38 43.51090 22.19459 26664 ft 422 kts 279°
2026-04-27 17:39 43.51642 22.15477 26911 ft 424 kts 281°
2026-04-27 17:39 43.52233 22.11493 27197 ft 424 kts 281°
2026-04-27 17:39 43.52829 22.07517 27508 ft 423 kts 281°
2026-04-27 17:39 43.53409 22.03538 27749 ft 424 kts 281°
2026-04-27 17:40 43.53974 21.99540 27970 ft 426 kts 280°
2026-04-27 17:40 43.54532 21.95528 28192 ft 427 kts 280°
2026-04-27 17:40 43.55092 21.91517 28480 ft 426 kts 280°
2026-04-27 17:40 43.55656 21.87514 28757 ft 425 kts 280°
2026-04-27 17:41 43.56222 21.83512 29031 ft 424 kts 280°
2026-04-27 17:41 43.56785 21.79523 29303 ft 424 kts 280°
2026-04-27 17:41 43.57343 21.75538 29568 ft 423 kts 280°
2026-04-27 17:41 43.57898 21.71555 29821 ft 422 kts 280°
2026-04-27 17:42 43.58450 21.67577 30075 ft 422 kts 280°
2026-04-27 17:42 43.58999 21.63611 30319 ft 421 kts 280°
2026-04-27 17:42 43.59548 21.59641 30559 ft 421 kts 280°
2026-04-27 17:42 43.60094 21.55681 30770 ft 421 kts 280°
2026-04-27 17:43 43.60639 21.51712 30983 ft 421 kts 280°
2026-04-27 17:43 43.61182 21.47752 31216 ft 420 kts 280°
2026-04-27 17:43 43.61724 21.43797 31434 ft 420 kts 280°
2026-04-27 17:43 43.62264 21.39841 31666 ft 419 kts 280°
2026-04-27 17:44 43.62795 21.35940 31856 ft 419 kts 280°
2026-04-27 17:44 43.63331 21.31988 32050 ft 419 kts 280°
2026-04-27 17:44 43.63867 21.28041 32302 ft 418 kts 281°
2026-04-27 17:44 43.64402 21.24105 32511 ft 417 kts 281°
2026-04-27 17:45 43.64932 21.20170 32713 ft 417 kts 281°
2026-04-27 17:45 43.65458 21.16238 32906 ft 416 kts 281°
2026-04-27 17:45 43.65984 21.12306 33062 ft 417 kts 281°
2026-04-27 17:45 43.66511 21.08370 33247 ft 416 kts 281°
2026-04-27 17:46 43.67035 21.04438 33427 ft 416 kts 281°
2026-04-27 17:46 43.67555 21.00512 33605 ft 416 kts 281°
2026-04-27 17:46 43.68074 20.96581 33737 ft 416 kts 281°
2026-04-27 17:46 43.68594 20.92649 33905 ft 416 kts 281°
2026-04-27 17:47 43.69113 20.88717 34070 ft 416 kts 281°
2026-04-27 17:47 43.69970 20.82179 34147 ft 417 kts 281°
2026-04-27 17:48 43.70998 20.74296 34146 ft 417 kts 281°
2026-04-27 17:48 43.72027 20.66396 34149 ft 418 kts 281°
2026-04-27 17:49 43.73048 20.58487 34151 ft 418 kts 281°
2026-04-27 17:49 43.74068 20.50537 34172 ft 420 kts 281°
2026-04-27 17:50 43.75081 20.42595 34189 ft 420 kts 281°
2026-04-27 17:50 43.76596 20.30646 34183 ft 421 kts 281°
2026-04-27 17:51 43.77598 20.22677 34185 ft 420 kts 281°
2026-04-27 17:51 43.78596 20.14702 34171 ft 421 kts 281°
2026-04-27 17:52 43.79586 20.06726 34133 ft 421 kts 281°
2026-04-27 17:52 43.80573 19.98738 34092 ft 421 kts 281°
2026-04-27 17:53 43.81557 19.90743 34090 ft 422 kts 281°
2026-04-27 17:53 43.82534 19.82734 34097 ft 422 kts 281°
2026-04-27 17:54 43.83505 19.74721 34122 ft 422 kts 281°
2026-04-27 17:54 43.84471 19.66708 34135 ft 422 kts 281°
2026-04-27 17:55 43.85433 19.58691 34140 ft 422 kts 281°
2026-04-27 17:55 43.86390 19.50672 34149 ft 422 kts 281°
2026-04-27 17:56 43.87341 19.42647 34137 ft 422 kts 281°
2026-04-27 17:56 43.88284 19.34616 34136 ft 422 kts 281°
2026-04-27 17:57 43.89225 19.26583 34121 ft 422 kts 281°
2026-04-27 17:57 43.90162 19.18539 34102 ft 423 kts 281°
2026-04-27 17:58 43.91090 19.10486 34091 ft 423 kts 281°
2026-04-27 17:58 43.92012 19.02424 34082 ft 423 kts 281°
2026-04-27 17:59 43.92936 18.94350 34065 ft 424 kts 281°
2026-04-27 17:59 43.93851 18.86264 34065 ft 425 kts 281°
2026-04-27 18:00 43.94761 18.78157 34058 ft 425 kts 281°
2026-04-27 18:00 43.95670 18.70043 34058 ft 426 kts 281°
2026-04-27 18:01 43.96573 18.61909 34052 ft 427 kts 281°
2026-04-27 18:01 43.97472 18.53753 34051 ft 428 kts 281°
2026-04-27 18:02 43.98366 18.45583 34049 ft 429 kts 281°
2026-04-27 18:02 43.99256 18.37394 34066 ft 429 kts 281°
2026-04-27 18:03 44.00143 18.29206 34084 ft 429 kts 281°
2026-04-27 18:03 44.01024 18.21005 34059 ft 430 kts 281°
2026-04-27 18:04 44.01899 18.12777 34073 ft 430 kts 281°
2026-04-27 18:04 44.02766 18.04554 34088 ft 430 kts 281°
2026-04-27 18:05 44.03634 17.96331 34102 ft 430 kts 281°
2026-04-27 18:05 44.04493 17.88099 34112 ft 430 kts 281°
2026-04-27 18:06 44.05345 17.79868 34125 ft 430 kts 281°
2026-04-27 18:06 44.06191 17.71633 34143 ft 430 kts 281°
2026-04-27 18:07 44.07031 17.63402 34143 ft 430 kts 281°
2026-04-27 18:07 44.07862 17.55210 34123 ft 431 kts 281°
2026-04-27 18:08 44.08699 17.46910 34096 ft 431 kts 281°
2026-04-27 18:08 44.09522 17.38650 34059 ft 432 kts 281°
2026-04-27 18:09 44.10335 17.30429 34064 ft 432 kts 281°
2026-04-27 18:09 44.11156 17.22105 34095 ft 431 kts 281°
2026-04-27 18:10 44.11956 17.13899 34127 ft 431 kts 281°
2026-04-27 18:10 44.12755 17.05637 34148 ft 430 kts 281°
2026-04-27 18:11 44.13550 16.97378 34147 ft 430 kts 280°
2026-04-27 18:11 44.14336 16.89128 34145 ft 430 kts 280°
2026-04-27 18:12 44.15116 16.80884 34118 ft 429 kts 280°
2026-04-27 18:12 44.15891 16.72637 34079 ft 429 kts 280°
2026-04-27 18:13 44.16660 16.64392 34060 ft 429 kts 280°
2026-04-27 18:13 44.17421 16.56145 34059 ft 429 kts 280°
2026-04-27 18:14 44.18177 16.47887 34058 ft 430 kts 280°
2026-04-27 18:14 44.18927 16.39616 34081 ft 430 kts 279°
2026-04-27 18:15 44.19671 16.31355 34120 ft 430 kts 279°
2026-04-27 18:15 44.20409 16.23091 34133 ft 430 kts 279°
2026-04-27 18:16 44.21144 16.14818 34103 ft 430 kts 279°
2026-04-27 18:16 44.21872 16.06536 34093 ft 430 kts 279°
2026-04-27 18:17 44.22592 15.98249 34088 ft 430 kts 279°
2026-04-27 18:17 44.23309 15.89964 34085 ft 430 kts 279°
2026-04-27 18:18 44.24019 15.81679 34082 ft 430 kts 279°
2026-04-27 18:18 44.24722 15.73388 34080 ft 430 kts 279°
2026-04-27 18:19 44.25418 15.65096 34091 ft 430 kts 279°
2026-04-27 18:19 44.26113 15.56809 34085 ft 430 kts 279°
2026-04-27 18:20 44.26794 15.48574 34084 ft 430 kts 279°
2026-04-27 18:20 44.27473 15.40285 34082 ft 430 kts 279°
2026-04-27 18:21 44.28145 15.31984 34060 ft 431 kts 278°
2026-04-27 18:21 44.28813 15.23677 34064 ft 431 kts 278°
2026-04-27 18:22 44.29477 15.15373 34065 ft 431 kts 278°
2026-04-27 18:22 44.30132 15.07064 34071 ft 430 kts 278°
2026-04-27 18:23 44.30781 14.98749 34043 ft 431 kts 278°
2026-04-27 18:23 44.31428 14.90431 34056 ft 431 kts 278°
2026-04-27 18:24 44.32065 14.82104 34036 ft 432 kts 278°
2026-04-27 18:24 44.32701 14.73766 34053 ft 432 kts 278°
2026-04-27 18:25 44.33329 14.65427 34041 ft 432 kts 278°
2026-04-27 18:25 44.33949 14.57079 34069 ft 432 kts 278°
2026-04-27 18:26 44.34565 14.48727 34051 ft 433 kts 278°
2026-04-27 18:26 44.35178 14.40363 34068 ft 432 kts 277°
2026-04-27 18:27 44.35778 14.31997 34069 ft 433 kts 277°
2026-04-27 18:27 44.36376 14.23626 34045 ft 433 kts 277°
2026-04-27 18:28 44.36970 14.15246 34055 ft 433 kts 277°
2026-04-27 18:28 44.37555 14.06864 34055 ft 433 kts 277°
2026-04-27 18:29 44.38139 13.98483 34067 ft 433 kts 277°
2026-04-27 18:29 44.38711 13.90101 34079 ft 433 kts 277°
2026-04-27 18:30 44.39281 13.81709 34068 ft 433 kts 277°
2026-04-27 18:30 44.39840 13.73377 34069 ft 433 kts 277°
2026-04-27 18:31 44.40396 13.64931 34066 ft 433 kts 277°
2026-04-27 18:31 44.40942 13.56602 34083 ft 433 kts 277°
2026-04-27 18:32 44.41484 13.48210 34046 ft 434 kts 277°
2026-04-27 18:32 44.42028 13.39815 34052 ft 433 kts 277°
2026-04-27 18:33 44.42572 13.31431 34070 ft 433 kts 277°
2026-04-27 18:33 44.43102 13.23048 34061 ft 433 kts 277°
2026-04-27 18:34 44.43534 13.16073 34034 ft 433 kts 277°
2026-04-27 18:34 44.44054 13.07618 34018 ft 433 kts 277°
2026-04-27 18:35 44.44572 12.99215 34013 ft 433 kts 277°
2026-04-27 18:35 44.45077 12.90866 34015 ft 434 kts 277°
2026-04-27 18:36 44.45580 12.82454 34019 ft 434 kts 277°
2026-04-27 18:36 44.46081 12.74034 34027 ft 435 kts 277°
2026-04-27 18:37 44.46575 12.65597 34052 ft 435 kts 277°
2026-04-27 18:37 44.47060 12.57160 34059 ft 435 kts 277°
2026-04-27 18:38 44.47540 12.48715 34061 ft 435 kts 276°
2026-04-27 18:38 44.48011 12.40253 34030 ft 436 kts 276°
2026-04-27 18:39 44.48483 12.31774 34029 ft 437 kts 276°
2026-04-27 18:39 44.48944 12.23294 34020 ft 437 kts 276°
2026-04-27 18:40 44.49403 12.14808 34026 ft 437 kts 276°
2026-04-27 18:40 44.49855 12.06319 34017 ft 437 kts 276°
2026-04-27 18:41 44.50303 11.97826 34026 ft 437 kts 276°
2026-04-27 18:41 44.50747 11.89332 34025 ft 437 kts 278°
2026-04-27 18:42 44.51840 11.82464 34030 ft 434 kts 288°
2026-04-27 18:42 44.53901 11.73016 34026 ft 434 kts 288°
2026-04-27 18:43 44.54756 11.68972 33912 ft 430 kts 288°
2026-04-27 18:43 44.55568 11.64934 33467 ft 430 kts 287°
2026-04-27 18:43 44.56366 11.60890 32876 ft 430 kts 287°
2026-04-27 18:43 44.57169 11.56839 32222 ft 432 kts 287°
2026-04-27 18:44 44.57988 11.52779 31562 ft 433 kts 287°
2026-04-27 18:44 44.58818 11.48714 30923 ft 434 kts 287°
2026-04-27 18:44 44.59649 11.44651 30335 ft 433 kts 287°
2026-04-27 18:44 44.60472 11.40599 29749 ft 432 kts 287°
2026-04-27 18:45 44.61284 11.36553 29161 ft 430 kts 287°
2026-04-27 18:45 44.62088 11.32512 28588 ft 429 kts 287°
2026-04-27 18:45 44.62888 11.28493 28036 ft 426 kts 287°
2026-04-27 18:45 44.63684 11.24504 27476 ft 424 kts 287°
2026-04-27 18:46 44.64480 11.20525 26900 ft 422 kts 287°
2026-04-27 18:46 44.65269 11.16572 26336 ft 419 kts 286°
2026-04-27 18:46 44.66047 11.12644 25774 ft 416 kts 286°
2026-04-27 18:46 44.66818 11.08742 25241 ft 413 kts 286°
2026-04-27 18:47 44.67581 11.04870 24683 ft 410 kts 286°
2026-04-27 18:47 44.68338 11.01022 24113 ft 407 kts 286°
2026-04-27 18:47 44.69090 10.97205 23572 ft 404 kts 286°
2026-04-27 18:47 44.69836 10.93413 23032 ft 401 kts 286°
2026-04-27 18:48 44.70575 10.89654 22487 ft 398 kts 286°
2026-04-27 18:48 44.71307 10.85921 21932 ft 395 kts 286°
2026-04-27 18:48 44.72032 10.82210 21376 ft 392 kts 286°
2026-04-27 18:48 44.72749 10.78525 20846 ft 389 kts 286°
2026-04-27 18:49 44.73459 10.74873 20324 ft 386 kts 286°
2026-04-27 18:49 44.74154 10.71296 19788 ft 383 kts 286°
2026-04-27 18:49 44.74856 10.67690 19217 ft 381 kts 286°
2026-04-27 18:49 44.75559 10.64057 18678 ft 378 kts 286°
2026-04-27 18:50 44.76238 10.60544 18150 ft 376 kts 286°
2026-04-27 18:50 44.76919 10.57004 17626 ft 373 kts 286°
2026-04-27 18:50 44.77592 10.53489 17082 ft 371 kts 286°
2026-04-27 18:50 44.78264 10.49989 16535 ft 369 kts 286°
2026-04-27 18:51 44.78930 10.46512 15996 ft 367 kts 286°
2026-04-27 18:51 44.79591 10.43057 15475 ft 364 kts 286°
2026-04-27 18:51 44.80247 10.39622 14963 ft 362 kts 286°
2026-04-27 18:51 44.80901 10.36206 14523 ft 363 kts 285°
2026-04-27 18:52 44.81560 10.32748 14276 ft 367 kts 285°
2026-04-27 18:52 44.82529 10.29445 13934 ft 365 kts 303°
2026-04-27 18:52 44.84292 10.26922 13629 ft 363 kts 324°
2026-04-27 18:53 44.88691 10.23391 12849 ft 360 kts 332°
2026-04-27 18:53 44.90835 10.21714 12444 ft 353 kts 330°
2026-04-27 18:53 44.92895 10.19958 12258 ft 339 kts 328°
2026-04-27 18:53 44.94836 10.18199 12113 ft 325 kts 327°
2026-04-27 18:54 44.96691 10.16497 11975 ft 312 kts 327°
2026-04-27 18:54 44.98482 10.14873 11822 ft 300 kts 327°
2026-04-27 18:54 45.00228 10.13315 11488 ft 296 kts 328°
2026-04-27 18:54 45.01973 10.11765 11007 ft 297 kts 328°
2026-04-27 18:55 45.03709 10.10222 10716 ft 291 kts 327°
2026-04-27 18:55 45.05387 10.08727 10591 ft 279 kts 327°
2026-04-27 18:55 45.06996 10.07289 10438 ft 269 kts 327°
2026-04-27 18:55 45.08573 10.05867 10044 ft 270 kts 327°
2026-04-27 18:56 45.10161 10.04435 9616 ft 271 kts 327°
2026-04-27 18:56 45.11755 10.03011 9222 ft 271 kts 327°
2026-04-27 18:56 45.13355 10.01585 8823 ft 272 kts 327°
2026-04-27 18:56 45.14948 10.00160 8471 ft 270 kts 327°
2026-04-27 18:57 45.16564 9.98705 8095 ft 269 kts 327°
2026-04-27 18:57 45.18104 9.97317 7763 ft 267 kts 327°
2026-04-27 18:57 45.19670 9.95909 7427 ft 265 kts 327°
2026-04-27 18:57 45.21212 9.94527 7247 ft 256 kts 327°
2026-04-27 18:58 45.22722 9.93296 7110 ft 247 kts 335°
2026-04-27 18:58 45.23822 9.92856 6746 ft 252 kts 355°
2026-04-27 18:58 45.26151 9.93249 6266 ft 250 kts
2026-04-27 18:58 45.27845 9.93668 6041 ft 242 kts
2026-04-27 18:59 45.29474 9.93875 5943 ft 228 kts
2026-04-27 18:59 45.31020 9.93965 5969 ft 221 kts
2026-04-27 18:59 45.32556 9.94082 5988 ft 223 kts
2026-04-27 18:59 45.34132 9.94264 6017 ft 230 kts
2026-04-27 19:00 45.35732 9.94490 5979 ft 231 kts
2026-04-27 19:00 45.37328 9.94728 5969 ft 230 kts
2026-04-27 19:00 45.38893 9.94953 5957 ft 231 kts
2026-04-27 19:00 45.40522 9.95131 5941 ft 234 kts
2026-04-27 19:01 45.42130 9.95332 5948 ft 235 kts
2026-04-27 19:01 45.43764 9.95553 5956 ft 237 kts
2026-04-27 19:01 45.45407 9.95791 5959 ft 237 kts
2026-04-27 19:01 45.47038 9.96008 5966 ft 235 kts
2026-04-27 19:02 45.48665 9.96210 5942 ft 234 kts
2026-04-27 19:02 45.50282 9.96399 5906 ft 233 kts
2026-04-27 19:02 45.51901 9.96392 5630 ft 232 kts 356°
2026-04-27 19:02 45.53496 9.96193 5360 ft 227 kts 354°
2026-04-27 19:03 45.55045 9.96017 5162 ft 219 kts 356°
2026-04-27 19:03 45.56515 9.95954 5110 ft 201 kts 359°
2026-04-27 19:03 45.57917 9.95939 4660 ft 206 kts 359°
2026-04-27 19:03 45.58897 9.95932 4342 ft 209 kts 359°
2026-04-27 19:04 45.60776 9.95805 4045 ft 197 kts 349°
2026-04-27 19:04 45.61913 9.94880 3703 ft 191 kts 305°
2026-04-27 19:04 45.62485 9.93260 3576 ft 177 kts 292°
2026-04-27 19:04 45.62882 9.91608 3495 ft 175 kts 285°
2026-04-27 19:05 45.63213 9.89904 3279 ft 180 kts 284°
2026-04-27 19:05 45.63522 9.88159 3046 ft 182 kts 283°
2026-04-27 19:05 45.63826 9.86395 2800 ft 181 kts 284°
2026-04-27 19:05 45.64137 9.84755 2584 ft 165 kts 284°
2026-04-27 19:06 45.64436 9.83212 2307 ft 154 kts 284°
2026-04-27 19:06 45.64712 9.81766 2075 ft 147 kts 284°
2026-04-27 19:06 45.64977 9.80337 1905 ft 151 kts 283°
2026-04-27 19:06 45.65238 9.78893 1731 ft 153 kts 284°
2026-04-27 19:07 45.65515 9.77426 1520 ft 153 kts 284°
2026-04-27 19:07 45.65791 9.75961 1323 ft 152 kts 284°
2026-04-27 19:07 45.66069 9.74491 1114 ft 153 kts 285°
2026-04-27 19:07 45.66347 9.73036 930 ft 150 kts 285°
2026-04-27 19:08 45.66613 9.71621 797 ft 132 kts 285°
2026-04-27 19:08 45.66778 9.70732 796 ft 63 kts 284°
2026-04-27 19:08 45.66871 9.70241 796 ft 44 kts 284°
2026-04-27 19:08 45.66880 9.69980 796 ft 14 kts 249°
2026-04-27 19:09 45.66844 9.69883 796 ft 10 kts 239°
2026-04-27 19:09 45.66781 9.69834 796 ft 12 kts 158°
2026-04-27 19:09 45.66760 9.69904 796 ft 9 kts 102°
2026-04-27 19:09 45.66743 9.70006 796 ft 12 kts 103°
2026-04-27 19:10 45.66729 9.70085 796 ft 0 kts 105°
2026-04-27 19:10 45.66720 9.70101 796 ft 2 kts 161°
2026-04-27 19:10 45.66693 9.70081 796 ft 6 kts 207°
2026-04-27 19:10 45.66676 9.70071 796 ft 1 kts 199°
2026-04-27 19:11 45.66650 9.70062 796 ft 5 kts 194°
2026-04-27 19:11 45.66637 9.70058 796 ft 0 kts 194°
2026-04-27 19:11 45.66637 9.70057 796 ft 0 kts 194°